Location: Albany
(35.0170°S, 117.8920°E)
Time: 20:38:31
(UTC+08:00)

A-11 Canister half - Pass Details

Date: 23 January 2021
Orbit: 1525 x 1684 km, 47.3° (Epoch: 03 March)

Event Time Altitude Azimuth Distance (km) Brightness Sun altitude
Rises 01:58:10 0° 320° (NW) 4,926 - -30.7°
Reaches altitude 10° 02:01:21 10° 322° (NW) 3,942 - -30.4°
Exits shadow 02:09:01 54° 348° (NNW) 1,974 9.1 -29.7°
Maximum altitude 02:11:23 68° 42° (NE) 1,783 9.1 -29.4°
Drops below altitude 10° 02:21:17 10° 122° (ESE) 3,893 11.9 -28.4°
Sets 02:24:25 0° 124° (ESE) 4,862 12.6 -28.0°
